Hourly Weather Roundup
Issued by NWS Central Illinois

Home | Current Version | Previous Version | Text Only | Print | Product List | Glossary On
Versions: 1 2 3 4 5 6 7 8 9 10 11 12 13 14 15 16 17 18 19 20 21 22 23 24 25 26 27 28 29 30 31 32 33 34 35 36 37 38 39 40 41 42 43 44 45 46 47 48 49 50
000
NZUS43 KILX 221610
HWRILX

AREA WEATHER ROUNDUP
NATIONAL WEATHER SERVICE, LINCOLN IL
1100 AM CDT WED MAR 22 2017


CITY           SKY/WX    TMP DP  RH WIND       PRES   REMARKS
BLOOMINGTON    SUNNY     33  17  51 NE17G24   30.56R WCI  22
CHAMPAIGN      SUNNY     34  14  43 NE16G22   30.55R WCI  24
DECATUR        SUNNY     36  15  42 E17       30.53S WCI  26
EFFINGHAM      SUNNY     38  22  53 N7        30.54R WCI  32
FLORA          SUNNY     40  24  52 NE14      30.51R WCI  33
GALESBURG      SUNNY     35  23  59 E14       30.54  WCI  26
JACKSONVILLE   SUNNY     37  19  48 E17G23    30.52F WCI  27
LACON          PTSUNNY   34  22  61 NE12      30.57S WCI  25
LAWRENCEVILLE  SUNNY     40  19  43 NE14      30.51R WCI  32
LITCHFIELD     SUNNY     37  20  52 NE14      30.50F WCI  28
$$


CITY           SKY/WX    TMP DP  RH WIND       PRES   REMARKS
LINCOLN        SUNNY     36  17  45 E13G21    30.55S WCI  27
MACOMB         PTSUNNY   37  23  57 E14       30.56S WCI  28
MATTOON        SUNNY     36  15  42 E14       30.51R WCI  27
MT CARMEL AP   SUNNY     40  21  45 NE8       30.49S WCI  35
OLNEY-NOBLE AP SUNNY     39  21  48 NE7       30.51R WCI  34
PARIS          SUNNY     34  18  52 NE12G18   30.54S WCI  25
PEORIA         SUNNY     36  21  54 E16       30.56S WCI  26
PONTIAC        MOSUNNY   33  22  65 E12       30.59R WCI  24
RANTOUL        SUNNY     34  18  53 NE13G18   30.56R WCI  25
SPRINGFIELD    SUNNY     39  16  39 NE15      30.54S WCI  31
TAYLORVILLE    SUNNY     37  16  42 E15       30.53F WCI  27
$$

...REGIONAL REPORTS...


CITY           SKY/WX    TMP DP  RH WIND       PRES   REMARKS
CHICAGO O`HARE CLOUDY    34  18  52 NE12      30.58R WCI  25
KANKAKEE       SUNNY     32  13  47 NE8       30.59S WCI  24
MOLINE         SUNNY     36  17  46 E16       30.56S WCI  26
MOUNT STERLING SUNNY     36  23  58 E14G20    30.52R WCI  27
MOUNT VERNON   SUNNY     42  23  46 E10G20    30.48R
PITTSFIELD     SUNNY     39  25  57 NE13G18   30.52S WCI  31
QUINCY         SUNNY     37  23  56 E15       30.51R WCI  28
ROCKFORD       MOSUNNY   34  14  43 NE13      30.60S WCI  25
$$


CITY           SKY/WX    TMP DP  RH WIND       PRES   REMARKS
BURLINGTON     PTSUNNY   37  25  61 E12       30.53S WCI  29
CEDAR RAPIDS   MOSUNNY   33  20  58 E15       30.54R WCI  23
DES MOINES     CLOUDY    37  24  59 SE17      30.48F WCI  27
KIRKSVILLE     CLOUDY    40  25  55 E15       30.47S WCI  32
OTTUMWA        MOSUNNY   37  24  59 SE18G25   30.50S WCI  27
ST LOUIS       PTSUNNY   43  22  43 E13       30.48F
$$


CITY           SKY/WX    TMP DP  RH WIND       PRES   REMARKS
TERRE HAUTE    SUNNY     37  18  46 NE12G20   30.53R WCI  29
EVANSVILLE     SUNNY     46  22  38 NE12G21   30.46R
INDIANAPOLIS   MOSUNNY   33  13  43 NE9       30.53R WCI  25
LAFAYETTE      SUNNY     30  13  49 E12G18    30.57R WCI  20
MADISON        SUNNY     29   9  43 E10       30.59F WCI  20
MILWAUKEE      CLOUDY    30  16  56 NE10      30.61R WCI  21
$$






USA.gov is the U.S. government's official web portal to all federal, state and local government web resources and services.